sat.trackr.live / text

‹ back to catalog

STARLINK-11258 [DTC]

NORAD 62598 · 2025-008M

PAYLOAD ACTIVE UNKNOWN

§ Identity

Operator
Country
US
Launch date
2025-01-13
Launch site
AFETR
Launch vehicle
Mass (kg)
RCS (m²)

Purposes: comms

External: N2YO · Heavens-Above · Gunter

§ Orbital elements

Epoch: 2026-05-25T01:01:47.919072Z

Period
91.67 min
Inclination
43.0011°
Eccentricity
0.0002017
Mean motion
15.70867065 rev/d
Perigee alt
355.1 km
Apogee alt
357.8 km
Semi-major
6,734.6 km
B*
1.3887e-3
RAAN
25.8368°
Arg perigee
265.6534°
Mean anomaly
94.4103°
Rev number
7,929

§ Raw data

STARLINK-11258 [DTC]1 62598U 25008M   26145.04291573  .00181900  00000+0  13887-2 0  99912 62598  43.0011  25.8368 0002017 265.6534  94.4103 15.70867065 79297

JSON: /api/v1/satellites/62598 · /tle

For live sub-satellite position, see the globe view (requires WebGL).

§ Visibility from observer

Set your observer location to see the next 7 days of passes ≥ 10°. The values pass through the URL so the page stays shareable.

No JS? Fill the form by hand. The geolocation button needs JavaScript.